TimeMST,TemperatureF,Dew PointF,Humidity,Sea Level PressureIn,VisibilityMPH,Wind Direction,Wind SpeedMPH,Gust SpeedMPH,PrecipitationIn,Events,Conditions,WindDirDegrees,DateUTC
12:15 AM,10.4,8.6,92,30.28,5.0,SE,6.9,-,N/A,,Clear,130,2013-01-07 07:15:00
12:35 AM,10.4,8.6,92,30.28,5.0,SE,5.8,-,N/A,,Clear,130,2013-01-07 07:35:00
12:55 AM,10.4,8.6,92,30.28,5.0,SSE,5.8,-,N/A,,Clear,150,2013-01-07 07:55:00
1:15 AM,8.6,8.6,100,30.27,5.0,SE,5.8,-,N/A,,Clear,140,2013-01-07 08:15:00
1:35 AM,8.6,6.8,92,30.26,5.0,ESE,4.6,-,N/A,,Clear,110,2013-01-07 08:35:00
1:55 AM,10.4,6.8,85,30.25,6.0,ESE,5.8,-,N/A,,Clear,120,2013-01-07 08:55:00
2:35 AM,10.4,8.6,92,30.24,5.0,SSE,4.6,-,N/A,,Overcast,150,2013-01-07 09:35:00
2:55 AM,12.2,8.6,85,30.27,6.0,SE,4.6,-,N/A,,Overcast,130,2013-01-07 09:55:00
3:15 AM,14.0,10.4,86,30.27,5.0,SE,3.5,-,N/A,,Overcast,140,2013-01-07 10:15:00
3:35 AM,14.0,10.4,86,30.26,5.0,SE,8.1,-,N/A,,Overcast,140,2013-01-07 10:35:00
3:55 AM,12.2,10.4,92,30.26,5.0,SSE,6.9,-,N/A,,Overcast,150,2013-01-07 10:55:00
4:15 AM,12.2,10.4,92,30.26,5.0,SE,5.8,-,N/A,,Overcast,140,2013-01-07 11:15:00
4:35 AM,14.0,10.4,86,30.24,5.0,SE,6.9,-,N/A,,Overcast,130,2013-01-07 11:35:00
4:55 AM,14.0,10.4,86,30.24,5.0,SE,6.9,-,N/A,,Overcast,140,2013-01-07 11:55:00
5:35 AM,14.0,10.4,86,30.25,5.0,SE,5.8,-,N/A,,Scattered Clouds,140,2013-01-07 12:35:00
5:55 AM,14.0,10.4,86,30.26,5.0,SSE,4.6,-,N/A,,Mostly Cloudy,150,2013-01-07 12:55:00
6:35 AM,14.0,12.2,93,30.27,6.0,SSE,6.9,-,N/A,,Overcast,150,2013-01-07 13:35:00
6:55 AM,14.0,12.2,93,30.26,5.0,SE,5.8,-,N/A,,Overcast,140,2013-01-07 13:55:00
7:15 AM,14.0,12.2,93,30.24,5.0,SE,6.9,-,N/A,,Overcast,140,2013-01-07 14:15:00
7:55 AM,15.8,14.0,93,30.26,7.0,SSE,4.6,-,N/A,,Overcast,160,2013-01-07 14:55:00
8:35 AM,17.6,15.8,93,30.25,1.5,SE,8.1,-,N/A,,Scattered Clouds,140,2013-01-07 15:35:00
8:55 AM,17.6,17.6,100,30.24,1.0,SE,15.0,-,N/A,,Clear,140,2013-01-07 15:55:00
9:15 AM,17.6,17.6,100,30.25,1.5,SSE,10.4,17.3,N/A,,Clear,150,2013-01-07 16:15:00
9:35 AM,17.6,17.6,100,30.24,1.5,SSE,13.8,18.4,N/A,,Clear,150,2013-01-07 16:35:00
9:55 AM,17.6,17.6,100,30.25,1.5,SSE,12.7,20.7,N/A,,Clear,160,2013-01-07 16:55:00
10:15 AM,17.6,17.6,100,30.25,1.5,SSE,12.7,16.1,N/A,,Clear,150,2013-01-07 17:15:00
10:35 AM,19.4,17.6,93,30.25,1.0,SE,13.8,-,N/A,,Clear,140,2013-01-07 17:35:00
11:15 AM,19.4,19.4,100,30.25,0.8,SSE,12.7,-,N/A,,Unknown,150,2013-01-07 18:15:00
11:55 AM,19.4,19.4,100,30.23,0.5,SSE,8.1,-,N/A,,Mostly Cloudy,160,2013-01-07 18:55:00
12:15 PM,19.4,19.4,100,30.22,0.2,SSE,8.1,-,N/A,,Overcast,160,2013-01-07 19:15:00
12:35 PM,19.4,19.4,100,30.22,0.5,South,8.1,-,N/A,,Overcast,170,2013-01-07 19:35:00
12:55 PM,21.2,21.2,100,30.21,0.2,South,8.1,-,0.01,,Overcast,180,2013-01-07 19:55:00
1:15 PM,19.4,19.4,100,30.21,0.5,SSW,3.5,-,0.01,,Overcast,200,2013-01-07 20:15:00
1:35 PM,19.4,19.4,100,30.20,1.0,SSW,3.5,-,0.02,,Mostly Cloudy,200,2013-01-07 20:35:00
1:55 PM,19.4,19.4,100,30.19,1.2,SSW,4.6,-,0.02,,Scattered Clouds,210,2013-01-07 20:55:00
2:35 PM,19.4,19.4,100,30.21,1.2,Calm,Calm,-,0.01,,Unknown,0,2013-01-07 21:35:00
2:55 PM,21.2,21.2,100,30.20,1.0,SW,4.6,-,0.01,,Clear,220,2013-01-07 21:55:00
3:15 PM,21.2,21.2,100,30.21,1.8,SW,5.8,-,N/A,,Scattered Clouds,230,2013-01-07 22:15:00
3:35 PM,21.2,21.2,100,30.21,1.5,WSW,4.6,-,N/A,,Mostly Cloudy,240,2013-01-07 22:35:00
3:55 PM,21.2,21.2,100,30.22,1.8,Calm,Calm,-,N/A,,Mostly Cloudy,0,2013-01-07 22:55:00
4:15 PM,21.2,21.2,100,30.22,1.5,Calm,Calm,-,N/A,,Overcast,0,2013-01-07 23:15:00
4:55 PM,23.0,23.0,100,30.23,3.0,Calm,Calm,-,0.01,,Overcast,0,2013-01-07 23:55:00
5:15 PM,21.2,21.2,100,30.23,3.0,North,3.5,-,0.01,,Mostly Cloudy,360,2013-01-08 00:15:00
5:55 PM,23.0,23.0,100,30.23,6.0,Calm,Calm,-,0.01,,Overcast,0,2013-01-08 00:55:00
6:15 PM,23.0,23.0,100,30.24,7.0,Calm,Calm,-,N/A,,Overcast,0,2013-01-08 01:15:00
6:35 PM,23.0,23.0,100,30.23,6.0,Calm,Calm,-,N/A,,Overcast,0,2013-01-08 01:35:00
7:15 PM,23.0,23.0,100,30.23,6.0,North,-9999.0,-,N/A,,Overcast,0,2013-01-08 02:15:00
7:35 PM,23.0,23.0,100,30.23,5.0,West,5.8,-,N/A,,Overcast,270,2013-01-08 02:35:00
7:55 PM,21.2,21.2,100,30.23,5.0,West,5.8,-,N/A,,Overcast,270,2013-01-08 02:55:00
8:15 PM,21.2,21.2,100,30.22,5.0,WSW,5.8,-,N/A,,Overcast,240,2013-01-08 03:15:00
8:35 PM,19.4,19.4,100,30.21,5.0,Calm,Calm,-,N/A,,Overcast,0,2013-01-08 03:35:00
8:55 PM,19.4,19.4,100,30.23,5.0,Calm,Calm,-,N/A,,Overcast,0,2013-01-08 03:55:00
9:15 PM,19.4,19.4,100,30.22,5.0,Calm,Calm,-,N/A,,Overcast,0,2013-01-08 04:15:00
9:35 PM,19.4,19.4,100,30.23,5.0,West,4.6,-,N/A,,Overcast,270,2013-01-08 04:35:00
9:55 PM,19.4,19.4,100,30.24,5.0,WNW,3.5,-,N/A,,Overcast,300,2013-01-08 04:55:00
10:15 PM,19.4,19.4,100,30.23,3.0,West,4.6,-,N/A,,Overcast,270,2013-01-08 05:15:00
10:55 PM,19.4,19.4,100,30.23,3.0,Calm,Calm,-,N/A,,Overcast,0,2013-01-08 05:55:00
11:15 PM,19.4,19.4,100,30.22,3.0,Calm,Calm,-,N/A,,Overcast,0,2013-01-08 06:15:00
11:35 PM,19.4,19.4,100,30.22,3.0,Calm,Calm,-,N/A,,Overcast,0,2013-01-08 06:35:00
11:55 PM,19.4,19.4,100,30.23,4.0,Calm,Calm,-,N/A,,Overcast,0,2013-01-08 06:55:00